Location: Chacón
(10.5789°N, 66.9317°W)
Time: 00:34:13
(UTC+00:00)

ATLAS 5 CENTAUR R/B - Pass Details

Date: 23 May 2024
Orbit: 256 x 11814 km, 20.2° (Epoch: 15 June)

Event Time Altitude Azimuth Distance (km) Brightness Sun altitude
Rises 05:00:44 0° 286° (WNW) 17,072 8.4 -57.5°
Reaches altitude 10° 05:25:27 10° 287° (WNW) 15,340 8.0 -55.3°
Enters shadow 06:26:22 66° 271° (W) 4,429 4.9 -46.7°
Exits shadow 06:32:50 76° 160° (SSE) 3,106 4.2 -45.6°
Drops below altitude 10° 06:41:49 10° 118° (ESE) 3,658 5.1 -44.0°
Sets 06:43:38 0° 116° (ESE) 4,163 5.5 -43.7°
